Location: Zagreb
(45.8000°N, 16.0000°E)
Time: 15:04:53
(UTC+02:00)

Vanguard 1 - Pass Details

Date: 13 August 2022
Orbit: 649 x 3832 km, 34.2° (Epoch: 25 September)

Event Time Altitude Azimuth Distance (km) Brightness Sun altitude
Rises 11:28:27 0° 282° (WNW) 7,729 14.3 53.3°
Reaches altitude 10° 11:34:48 10° 272° (W) 6,882 14.2 53.9°
Maximum altitude 11:51:58 28° 225° (SW) 5,360 14.3 55.6°
Drops below altitude 10° 12:06:49 10° 176° (S) 5,857 14.7 56.8°
Sets 12:11:43 0° 164° (SSE) 6,438 14.7 57.1°
